Regional Weather Roundup
Issued by NWS

Home | Current Version | Previous Version | Graphics & Text | Print | Product List | Glossary On
Versions: 1 2 3 4 5 6 7 8 9 10 11 12 13 14 15 16 17 18 19 20 21 22 23 24 25 26 27 28 29 30 31 32 33 34 35 36 37 38 39 40 41 42 43 44 45 46 47 48 49 50
349
ASUS43 KDMX 180906
RWRIA

WEATHER ROUNDUP FOR IOWA
NATIONAL WEATHER SERVICE DES MOINES IA
300 AM CST SUN FEB 18 2018

NOTE: "FAIR" INDICATES FEW OR NO CLOUDS BELOW 12,000 FEET WITH NO
SIGNIFICANT WEATHER AND/OR OBSTRUCTIONS TO VISIBILITY.

* - THESE STATIONS ARE NOT NWS STATIONS...THUS NOT UNDER NWS
QUALITY CONTROL.  THEY ALSO DO NOT REPORT WEATHER SUCH
AS PRECIPITATION OR FOG.

IAZ001>003-012>014-020>022-031>034-043>046-181000-
   NORTHWEST IOWA

CITY           SKY/WX    TMP DP  RH WIND       PRES   REMARKS
CARROLL *      PTCLDY    25  25 100 SE9       30.03F WCI  15
CHEROKEE *     CLOUDY    21  20  98 SE6       29.98F WCI  13
DENISON *      CLEAR     30  25  80 SE13      30.01F WCI  20
LE MARS *      CLOUDY    25  23  93 SE17      29.93F WCI  11
ORANGE CITY *  PTCLDY    23  23 100 SE8       29.92F WCI  14
SHELDON *      CLOUDY    21  21 100 SE14      29.91F WCI   8
SIOUX CITY     CLEAR     20  19  96 SE12      29.95F WCI   8
SPENCER        CLOUDY    17  13  84 SE7       29.98F WCI   8
STORM LAKE *   CLOUDY    21  19  93 SE15      29.97F WCI   8
$$

IAZ055>058-069>071-079>083-090>094-181000-
   SOUTHWEST IOWA

CITY           SKY/WX    TMP DP  RH WIND       PRES   REMARKS
ATLANTIC *     CLEAR     27  27 100 S8        30.04F WCI  18
AUDUBON *      CLEAR     21  19  93 CALM      30.03F
CLARINDA *     CLEAR     32  28  86 S7        30.10F WCI  26
COUNCIL BLFS * CLEAR     30  28  93 S15       30.01F WCI  19
CRESTON *      CLEAR     28  25  86 S9        30.08F WCI  20
HARLAN  *      CLEAR     28  28 100 S10       30.05F WCI  19
LAMONI         CLEAR     28  21  75 S6        30.10F WCI  22
RED OAK *      CLEAR     30  27  86 S9        30.05F WCI  22
SHENANDOAH *   CLEAR     32  27  80 SE15      30.05F WCI  22
$$

IAZ047>049-059>061-072>074-084-181000-
   CENTRAL IOWA

CITY           SKY/WX    TMP DP  RH WIND       PRES   REMARKS
AMES           CLOUDY    16  14  92 S3        30.09F
ANKENY *       CLOUDY    23  21  93 SE3       30.11F
BOONE *        PTCLDY    23  23 100 SE8       30.06F WCI  14
CHARITON *     CLEAR     27  23  86 SE10      30.09F WCI  17
DES MOINES     CLEAR     26  22  84 SE8       30.10F WCI  18
GRINNELL*      CLOUDY    20  19  96 SE5       30.13F WCI  14
KNOXVILLE *    CLOUDY    27  23  86 SE8       30.10F WCI  18
MARSHALLTOWN   CLOUDY    17  15  92 E6        30.10F FOG     WCI   9
NEWTON *       CLOUDY    21  21 100 SE7       30.12F WCI  13
PELLA *        CLOUDY    24  22  94 SE6       30.14F WCI  16
PERRY *        FAIR      24  23  96 SE8       30.08S WCI  15
$$

IAZ004>006-015-016-023>025-035-036-181000-
   NORTH CENTRAL IOWA

CITY           SKY/WX    TMP DP  RH WIND       PRES   REMARKS
ALGONA *       CLOUDY    19 N/A N/A SE8       30.01F WCI   9
CLARION *      CLOUDY    18  18 100 SE8       30.05F WCI   7
ESTHERVILLE    CLOUDY    12  11  95 SE7       30.00F WCI   1
FORT DODGE *   CLOUDY    18  17  96 SE3       30.05F
MASON CITY     PTCLDY    16  13  88 SE5       30.08F WCI   9
FOREST CITY *  FAIR      18  16  93 SE6       30.05F WCI   9
WEBSTER CITY * CLOUDY    14  10  85 SE9       30.04F WCI   2
IOWA FALLS *   FAIR      14  11  88 E6        30.08F WCI   5
$$

IAZ007>011-017>019-026>030-037>042-050>054-066-181000-
   NORTHEAST IOWA

CITY           SKY/WX    TMP DP  RH WIND       PRES   REMARKS
CEDAR RAPIDS   HAZE      16  11  80 CALM      30.15S VSB 1/4
CHARLES CITY * CLOUDY    16  16 100 S7        30.12S WCI   6
CLINTON *      MIX PCPN  16  15  96 S6        30.21S VSB 1   WCI   7
DECORAH *      FAIR      18  18 100 S6        30.12R WCI   9
DUBUQUE        FOG       13  10  88 SW3       30.15S VSB 1/4
MONTICELLO *   FAIR       9   5  85 CALM      30.18R
OELWEIN *      FOG       12  12 100 S6        30.14F VSB<1/4 WCI   3
WATERLOO       FAIR      11  11 100 E6        30.13F FOG     WCI   1
$$

IAZ064-065-067-068-078-181000-
   EAST CENTRAL IOWA

CITY           SKY/WX    TMP DP  RH WIND       PRES   REMARKS
DAVENPORT      FOG       17  13  84 S8        30.22S VSB 1/4 WCI   7
IOWA CITY      FOG       17  13  84 CALM      30.20F VSB 1/4
MT. PLEASANT * CLOUDY    25  25 100 SE6       30.19F WCI  18
MUSCATINE *    FOG       14  12  92 CALM      30.21F VSB<1/4
QUAD CITIES    FAIR      12   8  84 CALM      30.21F
$$

IAZ062-063-075>077-085>089-095>099-181000-
   SOUTHEAST IOWA

CITY           SKY/WX    TMP DP  RH WIND       PRES   REMARKS
BURLINGTON     PTCLDY    24  21  88 CALM      30.19F FOG
FAIRFIELD *    CLEAR     21  19  93 SE6       30.16F WCI  14
FORT MADISON * CLEAR     27  25  93 S6        30.21F WCI  20
KEOKUK *       CLEAR     25  25 100 CALM      30.19F
OSKALOOSA *    FAIR      22  21  96 SE8       30.15F WCI  13
OTTUMWA        CLEAR     26  22  84 SE6       30.14F WCI  19
WASHINGTON *   FOG       19  21 100 S7        30.18F VSB 1/2 WCI  10
$$

ABBREVIATIONS USED IN REMARKS
   TC - TEMPERATURES IN CELSIUS
  WCI - WIND CHILL INDEX
   HX - HEAT INDEX
  VSB - VISIBILITY
$$





USA.gov is the U.S. government's official web portal to all federal, state and local government web resources and services.